DW9005 Weather Reports


Display with metric or nautical units.
time (UTC)temp
F
wind
direction
speed
MPH
gust
MPH
rain 1hr
in
rain 24hr
in
rain mn
in
humidity
%
barometer
mb
20260905200050 97 0.0 0.0 0.00 0.00 0.00 52 1010.7
20260905194519 96 0.0 0.0 0.00 0.00 0.00 52 1010.8
20260905193017 96 0.0 0.0 0.00 0.00 0.00 52 1011.2
20260905191558 96 0.0 0.0 0.00 0.00 0.00 53 1011.3
20260905190056 96 0.0 0.0 0.00 0.00 0.00 54 1011.5
20260905184536 95 0.0 0.0 0.00 0.00 0.00 56 1011.9
20260905183034 95 0.0 0.0 0.00 0.00 0.00 56 1012.1
20260905181516 96 0.0 0.0 0.00 0.00 0.00 57 1012.3
20260905180013 94 0.0 0.0 0.00 0.00 0.00 59 1012.6
20260905174555 93 0.0 0.0 0.00 0.00 0.00 62 1012.8
20260905173056 94 0.0 0.0 0.00 0.00 0.00 58 1013.0
20260905171542 94 0.0 0.0 0.00 0.00 0.00 60 1013.2
20260905170036 94 0.0 0.0 0.00 0.00 0.00 59 1013.5
20260905164517 93 0.0 0.0 0.00 0.00 0.00 64 1013.6
20260905163016 94 0.0 0.0 0.00 0.00 0.00 60 1013.7
20260905161556 93 0.0 0.0 0.00 0.00 0.00 62 1013.8
20260905160120 92 0.0 0.0 0.00 0.00 0.00 65 1013.8
20260905154532 91 0.0 0.0 0.00 0.00 0.00 69 1013.7
20260905153031 90 0.0 0.0 0.00 0.00 0.00 72 1013.8
20260905151510 89 0.0 0.0 0.00 0.00 0.00 71 1013.9
20260905150010 88 0.0 0.0 0.00 0.00 0.00 73 1014.0
20260905144548 87 0.0 0.0 0.00 0.00 0.00 74 1014.0
20260905143046 86 0.0 0.0 0.00 0.00 0.00 78 1014.1
20260905141524 0 0.0 0.0 0.00 0.00 0.00 1014.2
20260905140018 0 0.0 0.0 0.00 0.00 0.00 1014.3
20260905134621 0 0.0 0.0 0.00 0.00 0.00 1014.3
20260905133056 0 0.0 0.0 0.00 0.00 0.00 1014.4
20260905131549 0 0.0 0.0 0.00 0.00 0.00 1014.5
20260905130031 76 0.0 0.0 0.00 0.00 0.00 95 1014.4
20260905124537 75 0.0 0.0 0.00 0.00 0.00 95 1014.4
20260905123009 74 0.0 0.0 0.00 0.00 0.00 95 1014.4
20260905121508 73 0.0 0.0 0.00 0.00 0.00 95 1014.2
20260905120106 73 0.0 0.0 0.00 0.00 0.00 95 1014.1
20260905114550 73 0.0 0.0 0.00 0.00 0.00 95 1014.2
20260905113036 73 0.0 0.0 0.00 0.00 0.00 95 1014.0
20260905111536 73 0.0 0.0 0.00 0.00 0.00 95 1013.8
20260905110033 73 0.0 0.0 0.00 0.00 0.00 95 1013.7
20260905104532 73 0.0 0.0 0.00 0.00 0.00 95 1013.6
20260905103039 73 0.0 0.0 0.00 0.00 0.00 95 1013.6
20260905101533 74 0.0 0.0 0.00 0.00 0.00 95 1013.5
20260905100030 74 0.0 0.0 0.00 0.00 0.00 95 1013.6
20260905094535 74 0.0 0.0 0.00 0.00 0.00 95 1013.6
20260905093011 74 0.0 0.0 0.00 0.00 0.00 95 1013.5
20260905091524 74 0.0 0.0 0.00 0.00 0.00 95 1013.3
20260905090111 74 0.0 0.0 0.00 0.00 0.00 95 1013.4
20260905084600 74 0.0 0.0 0.00 0.00 0.00 95 1013.3
20260905083031 74 0.0 0.0 0.00 0.00 0.00 95 1013.2
20260905081530 74 0.0 0.0 0.00 0.00 0.00 94 1013.1
20260905080011 74 0.0 0.0 0.00 0.00 0.00 94 1013.0
20260905074514 74 0.0 0.0 0.00 0.00 0.00 94 1013.0
20260905073059 74 0.0 0.0 0.00 0.00 0.00 94 1012.9
20260905071551 75 0.0 0.0 0.00 0.00 0.00 94 1012.9
20260905070031 75 0.0 0.0 0.00 0.00 0.00 94 1012.8
20260905064531 75 0.0 0.0 0.00 0.00 0.00 94 1012.9
20260905063013 75 0.0 0.0 0.00 0.00 0.00 94 1012.9
20260905061513 75 0.0 0.0 0.00 0.00 0.00 94 1013.0
20260905060107 75 0.0 0.0 0.00 0.00 0.00 93 1013.0
20260905054555 75 0.0 0.0 0.00 0.00 0.00 93 1013.1
20260905053038 76 0.0 0.0 0.00 0.00 0.00 93 1013.2
20260905051540 76 0.0 0.0 0.00 0.00 0.00 93 1013.2
20260905050023 76 0.0 0.0 0.00 0.00 0.00 92 1013.3
20260905044522 77 0.0 0.0 0.00 0.00 0.00 92 1013.2
20260905043001 77 0.0 0.0 0.00 0.00 0.00 92 1013.4
20260905041607 77 0.0 0.0 0.00 0.00 0.00 91 1013.4
20260905040043 77 0.0 0.0 0.00 0.00 0.00 90 1013.4
20260905034553 78 0.0 0.0 0.00 0.00 0.00 90 1013.4
20260905033031 78 0.0 0.0 0.00 0.00 0.00 90 1013.7
20260905031525 79 0.0 0.0 0.00 0.00 0.00 89 1013.7
20260905030013 79 0.0 0.0 0.00 0.00 0.00 88 1013.8
20260905024506 80 0.0 0.0 0.00 0.00 0.00 87 1014.0
20260905023049 80 0.0 0.0 0.00 0.00 0.00 86 1014.1
20260905021552 81 0.0 0.0 0.00 0.00 0.00 85 1014.0
20260905020036 81 0.0 0.0 0.00 0.00 0.00 83 1014.0
20260905014536 82 0.0 0.0 0.00 0.00 0.00 82 1014.0
20260905013013 82 0.0 0.0 0.00 0.00 0.00 81 1013.8
20260905011511 83 0.0 0.0 0.00 0.00 0.00 79 1013.5
20260905010104 84 0.0 0.0 0.00 0.00 0.00 77 1013.3
20260905004554 85 0.0 0.0 0.00 0.00 0.00 74 1013.3
20260905003036 87 0.0 0.0 0.00 0.00 0.00 71 1013.3
20260905001548 88 0.0 0.0 0.00 0.00 0.00 67 1013.3
20260905000019 90 0.0 0.0 0.00 0.00 0.00 65 1013.2
20260904234524 91 0.0 0.0 0.00 0.00 0.00 66 1013.2
20260904233119 93 0.0 0.0 0.00 0.00 0.00 61 1013.2
20260904231607 94 0.0 0.0 0.00 0.00 0.00 58 1013.1
20260904230045 95 0.0 0.0 0.00 0.00 0.00 56 1013.1
20260904224549 95 0.0 0.0 0.00 0.00 0.00 55 1012.8
20260904223025 95 0.0 0.0 0.00 0.00 0.00 54 1012.7
20260904221524 95 0.0 0.0 0.00 0.00 0.00 56 1012.6
20260904220007 95 0.0 0.0 0.00 0.00 0.00 56 1012.6
20260904214505 94 0.0 0.0 0.00 0.00 0.00 57 1012.8
20260904213047 96 0.0 0.0 0.00 0.00 0.00 55 1012.7
20260904211549 96 0.0 0.0 0.00 0.00 0.00 53 1012.8
20260904210044 95 0.0 0.0 0.00 0.00 0.00 55 1012.8
20260904204534 96 0.0 0.0 0.00 0.00 0.00 55 1012.9
20260904203035 95 0.0 0.0 0.00 0.00 0.00 53 1013.1
20260904201528 96 0.0 0.0 0.00 0.00 0.00 56 1013.3